星链-32702 (STARLINK-32702)

导读

STARLINK-32702是美国太空探索技术公司星链星座的成员,于2024年12月29日发射升空。星链计划旨在构建全球卫星互联网,该卫星承担着为全球偏远地区、海上与航空场景提供低延迟宽带网络服务的任务,进一步拓展了星链星座的覆盖范围与服务能力。

Basic Information
目录编号:
62432
目录名称:
STARLINK-32702
国际标识:
2024-251A
轨道中心:
EARTH
卫星名称:
星链-32702
卫星全名:
星链-32702 (STARLINK-32702)
卫星状态:
在轨 (已飞行615 天)
发射日期:
2024-12-29 UTC
国别 :
美国 (US)
星等 :
--
Orbit Information
数据来源 国际轨道数据 AOE轨道数据
星历时间 2026-09-05T11:43:18+0800
6小时前
查看轨道信息
2026-09-04T22:00:00+0800
20小时前
查看轨道信息
半长轴 6840.828km 6840.903km
偏心率 0.0001375 0.0001231
轨道倾角 53.158° 53.158°
近地点辐角 92.308° 87.537°
升交点赤经 217.572° 220.249°
平近点角 267.808° 352.602°
近地点 461.75km 461.923km
远地点 463.632km 463.609km
周期 93.847分钟 93.849分钟
每日圈数 15.344044 15.343791
Detailed Information
固有亮度:
5
最大亮度:
2.5
卫星平台:
Starlink V1.0
覆盖范围:
全球
运营商:
太空探索技术公司
运营商所在国:
美国
制造商(研发单位):
太空探索技术公司
制造商所在国:
美国
使用方式:
暂无
Satellite Introduction
Starlink 计划是 SpaceX 推出的全球卫星互联网项目,通过发射低轨道卫星,为全球尤其是偏远地区提供高速、低延迟的互联网服务。自 2019 年起,Starlink 已部署数千颗卫星,旨在缩小全球数字鸿沟,推动互联网普及。该项目还为军事、航空等行业提供通信支持,带来广泛经济效益。
2D Orbit Map
3D Orbit Map
Orbit Altitude Analysis Chart
Orbit Inclination Analysis Chart
Orbit Comprehensive Analysis Chart
View Comprehensive Chart
Conjunction Data List
Event ID Objects TCA Miss Dist (km) Collision Risk Probability Collision Risk Index (CRI) Action
CDM_260906-235805-286706-243221
2026-09-06T
23:58:36+0000
0.503 km
远距离
1.277313E-4 高风险 0.77
CDM_260906-222405-286706-243221
2026-09-06T
22:24:48+0000
1.593 km
极远距离
3.301356E-6 低风险 0.45
CDM_260906-061304-579406-243223
2026-09-06T
06:13:47+0000
2.122 km
极远距离
2.466503E-6 低风险 0.43
CDM_260907-013205-286706-243221
2026-09-07T
01:32:23+0000
2.267 km
极远距离
1.336782E-6 低风险 0.38
CDM_260907-172206-243206-960621
2026-09-07T
17:22:46+0000
2.821 km
极远距离
1.27397E-6 低风险 0.37